| time (UTC) | temp F | wind direction | speed MPH | gust MPH | rain 1hr in | rain 24hr in | rain mn in | humidity % | barometer mb |
| 20260509122458 | 48 | 220 | 2.0 | 5.0 | 0.00 | 0.00 | 0.00 | 67 | 1013.8 |
| 20260509121458 | 47 | 234 | 1.0 | 3.0 | 0.00 | 0.00 | 0.00 | 73 | 1013.6 |
| 20260509120932 | 45 | 290 | 1.0 | 3.0 | 0.00 | 0.00 | 0.00 | 76 | 1013.6 |
| 20260509115456 | 44 | 287 | 0.0 | 3.0 | 0.00 | 0.00 | 0.00 | 79 | 1013.8 |
| 20260509114456 | 41 | 250 | 0.0 | 0.0 | 0.00 | 0.00 | 0.00 | 76 | 1013.8 |
| 20260509113454 | 39 | 250 | 0.0 | 0.0 | 0.00 | 0.00 | 0.00 | 73 | 1013.6 |
| 20260509112937 | 37 | 250 | 0.0 | 0.0 | 0.00 | 0.00 | 0.00 | 75 | 1013.6 |
| 20260509111454 | 37 | 250 | 0.0 | 0.0 | 0.00 | 0.00 | 0.00 | 74 | 1013.5 |
| 20260509110457 | 37 | 250 | 0.0 | 0.0 | 0.00 | 0.00 | 0.00 | 73 | 1013.4 |
| 20260509105448 | 35 | 250 | 0.0 | 0.0 | 0.00 | 0.00 | 0.00 | 72 | 1013.3 |
| 20260509104451 | 33 | 250 | 0.0 | 0.0 | 0.00 | 0.00 | 0.00 | 73 | 1013.3 |
| 20260509103449 | 32 | 250 | 0.0 | 0.0 | 0.00 | 0.00 | 0.00 | 74 | 1013.3 |
| 20260509102936 | 31 | 250 | 0.0 | 0.0 | 0.00 | 0.00 | 0.00 | 75 | 1013.2 |
| 20260509101925 | 29 | 250 | 0.0 | 0.0 | 0.00 | 0.00 | 0.00 | 76 | 1013.0 |
| 20260509100448 | 29 | 250 | 0.0 | 0.0 | 0.00 | 0.00 | 0.00 | 76 | 1012.9 |
| 20260509100415 | 29 | 250 | 0.0 | 0.0 | 0.00 | 0.00 | 0.00 | 76 | 1012.6 |
| 20260509094448 | 29 | 250 | 0.0 | 0.0 | 0.00 | 0.00 | 0.00 | 77 | 1012.5 |
| 20260509093447 | 29 | 250 | 0.0 | 0.0 | 0.00 | 0.00 | 0.00 | 76 | 1012.3 |
| 20260509092446 | 29 | 250 | 0.0 | 0.0 | 0.00 | 0.00 | 0.00 | 77 | 1012.2 |
| 20260509091447 | 29 | 250 | 0.0 | 0.0 | 0.00 | 0.00 | 0.00 | 77 | 1012.2 |
| 20260509090526 | 29 | 250 | 0.0 | 0.0 | 0.00 | 0.00 | 0.00 | 77 | 1012.2 |
| 20260509085523 | 30 | 250 | 0.0 | 0.0 | 0.00 | 0.00 | 0.00 | 77 | 1012.2 |
| 20260509084520 | 30 | 250 | 0.0 | 0.0 | 0.00 | 0.00 | 0.00 | 77 | 1012.3 |
| 20260509083516 | 30 | 250 | 0.0 | 0.0 | 0.00 | 0.00 | 0.00 | 77 | 1012.3 |
| 20260509082513 | 30 | 250 | 0.0 | 0.0 | 0.00 | 0.00 | 0.00 | 77 | 1012.4 |
| 20260509081508 | 30 | 250 | 0.0 | 0.0 | 0.00 | 0.00 | 0.00 | 78 | 1012.3 |
| 20260509080504 | 30 | 250 | 0.0 | 0.0 | 0.00 | 0.00 | 0.00 | 78 | 1012.3 |
| 20260509075501 | 30 | 250 | 0.0 | 0.0 | 0.00 | 0.00 | 0.00 | 78 | 1012.2 |
| 20260509074458 | 30 | 250 | 0.0 | 0.0 | 0.00 | 0.00 | 0.00 | 78 | 1012.2 |
| 20260509073956 | 30 | 250 | 0.0 | 0.0 | 0.00 | 0.00 | 0.00 | 78 | 1012.0 |
| 20260509072450 | 30 | 250 | 0.0 | 2.0 | 0.00 | 0.00 | 0.00 | 80 | 1012.0 |
| 20260509071449 | 31 | 250 | 1.0 | 2.0 | 0.00 | 0.00 | 0.00 | 79 | 1011.9 |
| 20260509070447 | 31 | 250 | 0.0 | 0.0 | 0.00 | 0.00 | 0.00 | 80 | 1011.8 |
| 20260509065950 | 32 | 250 | 0.0 | 0.0 | 0.00 | 0.00 | 0.00 | 80 | 1011.8 |
| 20260509064943 | 32 | 250 | 0.0 | 0.0 | 0.00 | 0.00 | 0.00 | 80 | 1011.7 |
| 20260509063440 | 33 | 250 | 0.0 | 0.0 | 0.00 | 0.00 | 0.00 | 80 | 1011.6 |
| 20260509062440 | 33 | 250 | 0.0 | 0.0 | 0.00 | 0.00 | 0.00 | 80 | 1011.5 |
| 20260509061440 | 33 | 250 | 0.0 | 0.0 | 0.00 | 0.00 | 0.00 | 80 | 1011.4 |
| 20260509060440 | 33 | 250 | 0.0 | 0.0 | 0.00 | 0.00 | 0.00 | 80 | 1011.4 |
| 20260509055440 | 33 | 250 | 0.0 | 0.0 | 0.00 | 0.00 | 0.00 | 80 | 1011.5 |
| 20260509054440 | 34 | 250 | 0.0 | 0.0 | 0.00 | 0.00 | 0.00 | 80 | 1011.5 |
| 20260509053440 | 34 | 250 | 0.0 | 0.0 | 0.00 | 0.00 | 0.00 | 80 | 1011.6 |
| 20260509052919 | 34 | 250 | 0.0 | 0.0 | 0.00 | 0.00 | 0.00 | 80 | 1011.6 |
| 20260509051439 | 34 | 250 | 0.0 | 5.0 | 0.00 | 0.00 | 0.00 | 80 | 1011.7 |
| 20260509050438 | 34 | 250 | 3.0 | 5.0 | 0.00 | 0.00 | 0.00 | 80 | 1011.7 |
| 20260509045438 | 34 | 271 | 1.0 | 3.0 | 0.00 | 0.00 | 0.00 | 80 | 1011.6 |
| 20260509044438 | 35 | 304 | 0.0 | 0.0 | 0.00 | 0.00 | 0.00 | 79 | 1011.5 |
| 20260509043438 | 35 | 304 | 0.0 | 1.0 | 0.00 | 0.00 | 0.00 | 80 | 1011.4 |
| 20260509042438 | 35 | 304 | 0.0 | 0.0 | 0.00 | 0.00 | 0.00 | 80 | 1011.3 |
| 20260509041441 | 35 | 304 | 0.0 | 1.0 | 0.00 | 0.00 | 0.00 | 80 | 1011.2 |
| 20260509040438 | 35 | 304 | 0.0 | 1.0 | 0.00 | 0.00 | 0.00 | 80 | 1011.1 |
| 20260509035435 | 35 | 304 | 0.0 | 0.0 | 0.00 | 0.00 | 0.00 | 80 | 1011.0 |
| 20260509034916 | 35 | 304 | 0.0 | 0.0 | 0.00 | 0.00 | 0.00 | 80 | 1010.9 |
| 20260509033435 | 35 | 304 | 0.0 | 0.0 | 0.00 | 0.00 | 0.00 | 80 | 1010.8 |
| 20260509032918 | 35 | 304 | 0.0 | 0.0 | 0.00 | 0.00 | 0.00 | 80 | 1010.8 |
| 20260509031435 | 35 | 304 | 0.0 | 0.0 | 0.00 | 0.00 | 0.00 | 80 | 1010.6 |
| 20260509030435 | 36 | 304 | 0.0 | 0.0 | 0.00 | 0.00 | 0.00 | 80 | 1010.5 |
| 20260509025435 | 36 | 304 | 0.0 | 0.0 | 0.00 | 0.00 | 0.00 | 80 | 1010.5 |
| 20260509024435 | 37 | 304 | 0.0 | 0.0 | 0.00 | 0.00 | 0.00 | 79 | 1010.4 |
| 20260509023436 | 37 | 304 | 0.0 | 0.0 | 0.00 | 0.00 | 0.00 | 79 | 1010.3 |
| 20260509022433 | 37 | 304 | 0.0 | 0.0 | 0.00 | 0.00 | 0.00 | 79 | 1010.1 |
| 20260509021918 | 37 | 304 | 0.0 | 0.0 | 0.00 | 0.00 | 0.00 | 79 | 1010.1 |
| 20260509020432 | 38 | 304 | 0.0 | 0.0 | 0.00 | 0.00 | 0.00 | 79 | 1010.0 |
| 20260509015433 | 38 | 304 | 0.0 | 0.0 | 0.00 | 0.00 | 0.00 | 79 | 1010.0 |
| 20260509014433 | 38 | 304 | 0.0 | 0.0 | 0.00 | 0.00 | 0.00 | 78 | 1009.8 |
| 20260509013918 | 39 | 304 | 0.0 | 0.0 | 0.00 | 0.00 | 0.00 | 77 | 1009.7 |
| 20260509012919 | 39 | 304 | 0.0 | 0.0 | 0.00 | 0.00 | 0.00 | 77 | 1009.5 |
| 20260509011433 | 40 | 304 | 0.0 | 1.0 | 0.00 | 0.00 | 0.00 | 76 | 1009.5 |
| 20260509010430 | 41 | 304 | 0.0 | 1.0 | 0.00 | 0.00 | 0.00 | 74 | 1009.3 |
| 20260509005431 | 42 | 304 | 0.0 | 1.0 | 0.00 | 0.00 | 0.00 | 72 | 1009.2 |
| 20260509004431 | 42 | 304 | 0.0 | 0.0 | 0.00 | 0.00 | 0.00 | 70 | 1009.0 |
| 20260509003430 | 44 | 304 | 0.0 | 0.0 | 0.00 | 0.00 | 0.00 | 68 | 1008.9 |
| 20260509002431 | 44 | 304 | 0.0 | 0.0 | 0.00 | 0.00 | 0.00 | 66 | 1008.7 |
| 20260509001430 | 46 | 304 | 0.0 | 0.0 | 0.00 | 0.00 | 0.00 | 64 | 1008.7 |
| 20260509000429 | 46 | 304 | 0.0 | 0.0 | 0.00 | 0.00 | 0.00 | 62 | 1008.6 |
| 20260508235429 | 47 | 304 | 0.0 | 0.0 | 0.00 | 0.00 | 0.00 | 62 | 1008.4 |
| 20260508234429 | 47 | 304 | 0.0 | 0.0 | 0.00 | 0.00 | 0.00 | 61 | 1008.3 |
| 20260508233913 | 48 | 304 | 0.0 | 0.0 | 0.00 | 0.00 | 0.00 | 60 | 1008.2 |
| 20260508232429 | 49 | 304 | 0.0 | 3.0 | 0.00 | 0.00 | 0.00 | 56 | 1008.1 |
| 20260508231429 | 49 | 304 | 0.0 | 3.0 | 0.00 | 0.00 | 0.00 | 51 | 1008.0 |
| 20260508230429 | 50 | 311 | 1.0 | 5.0 | 0.00 | 0.00 | 0.00 | 49 | 1007.8 |
| 20260508225429 | 51 | 300 | 2.0 | 9.0 | 0.00 | 0.00 | 0.00 | 47 | 1007.7 |
| 20260508224429 | 51 | 300 | 4.0 | 9.0 | 0.00 | 0.00 | 0.00 | 47 | 1007.6 |
| 20260508223910 | 53 | 310 | 3.0 | 8.0 | 0.00 | 0.00 | 0.00 | 48 | 1007.5 |
| 20260508222429 | 53 | 312 | 2.0 | 5.0 | 0.00 | 0.00 | 0.00 | 52 | 1007.4 |
| 20260508221428 | 52 | 225 | 2.0 | 7.0 | 0.00 | 0.00 | 0.00 | 53 | 1007.4 |
| 20260508220429 | 51 | 331 | 2.0 | 6.0 | 0.00 | 0.00 | 0.00 | 56 | 1007.3 |
| 20260508215429 | 51 | 325 | 3.0 | 9.0 | 0.00 | 0.00 | 0.00 | 55 | 1007.4 |
| 20260508214429 | 51 | 355 | 6.0 | 14.0 | 0.00 | 0.00 | 0.00 | 54 | 1007.4 |
| 20260508213428 | 52 | 294 | 5.0 | 11.0 | 0.00 | 0.00 | 0.00 | 52 | 1007.2 |
| 20260508212429 | 51 | 290 | 4.0 | 10.0 | 0.00 | 0.00 | 0.00 | 53 | 1007.1 |
| 20260508211429 | 51 | 200 | 3.0 | 10.0 | 0.00 | 0.00 | 0.00 | 52 | 1007.0 |
| 20260508210428 | 51 | 219 | 4.0 | 13.0 | 0.00 | 0.00 | 0.00 | 52 | 1006.8 |
| 20260508205429 | 52 | 194 | 5.0 | 13.0 | 0.00 | 0.00 | 0.00 | 52 | 1006.7 |
| 20260508204429 | 53 | 336 | 4.0 | 12.0 | 0.00 | 0.00 | 0.00 | 48 | 1006.5 |
| 20260508203429 | 53 | 303 | 4.0 | 12.0 | 0.00 | 0.00 | 0.00 | 46 | 1006.4 |
| 20260508202904 | 54 | 294 | 5.0 | 11.0 | 0.00 | 0.00 | 0.00 | 45 | 1006.3 |
| 20260508201429 | 54 | 289 | 4.0 | 16.0 | 0.00 | 0.00 | 0.00 | 44 | 1006.2 |
| 20260508200429 | 54 | 300 | 4.0 | 16.0 | 0.00 | 0.00 | 0.00 | 49 | 1006.2 |
| 20260508195428 | 54 | 259 | 6.0 | 14.0 | 0.00 | 0.00 | 0.00 | 47 | 1006.1 |
| 20260508194918 | 54 | 282 | 4.0 | 14.0 | 0.00 | 0.00 | 0.00 | 47 | 1006.2 |
| 20260508193428 | 53 | 300 | 4.0 | 15.0 | 0.00 | 0.00 | 0.00 | 52 | 1006.1 |
| 20260508192428 | 54 | 285 | 5.0 | 15.0 | 0.00 | 0.00 | 0.00 | 50 | 1006.0 |
| 20260508191428 | 53 | 272 | 3.0 | 10.0 | 0.00 | 0.00 | 0.00 | 51 | 1006.0 |
| 20260508190429 | 53 | 304 | 3.0 | 11.0 | 0.00 | 0.00 | 0.00 | 51 | 1006.0 |
| 20260508185429 | 51 | 263 | 5.0 | 15.0 | 0.00 | 0.00 | 0.00 | 51 | 1006.2 |
| 20260508184429 | 52 | 198 | 6.0 | 15.0 | 0.00 | 0.00 | 0.00 | 50 | 1006.2 |
| 20260508183911 | 53 | 306 | 4.0 | 15.0 | 0.00 | 0.00 | 0.00 | 51 | 1006.0 |
| 20260508182505 | 54 | 305 | 4.0 | 12.0 | 0.00 | 0.00 | 0.00 | 49 | 1005.8 |
| 20260508181501 | 56 | 315 | 4.0 | 12.0 | 0.00 | 0.00 | 0.00 | 45 | 1005.8 |
| 20260508180458 | 56 | 273 | 6.0 | 14.0 | 0.00 | 0.00 | 0.00 | 47 | 1005.8 |
| 20260508175454 | 56 | 288 | 5.0 | 15.0 | 0.00 | 0.00 | 0.00 | 49 | 1005.8 |
| 20260508174450 | 55 | 274 | 5.0 | 13.0 | 0.00 | 0.00 | 0.00 | 53 | 1005.7 |
| 20260508173446 | 53 | 303 | 4.0 | 13.0 | 0.00 | 0.00 | 0.00 | 46 | 1005.7 |
| 20260508172445 | 54 | 250 | 3.0 | 12.0 | 0.00 | 0.00 | 0.00 | 45 | 1005.6 |
| 20260508171443 | 53 | 281 | 2.0 | 11.0 | 0.00 | 0.00 | 0.00 | 49 | 1005.6 |
| 20260508170440 | 53 | 240 | 5.0 | 11.0 | 0.00 | 0.00 | 0.00 | 46 | 1005.6 |
| 20260508165433 | 53 | 263 | 4.0 | 12.0 | 0.00 | 0.00 | 0.00 | 47 | 1005.8 |
| 20260508164430 | 52 | 331 | 5.0 | 16.0 | 0.00 | 0.00 | 0.00 | 51 | 1005.8 |
| 20260508163428 | 52 | 216 | 4.0 | 16.0 | 0.00 | 0.00 | 0.00 | 48 | 1005.7 |
| 20260508162428 | 53 | 329 | 1.0 | 5.0 | 0.00 | 0.00 | 0.00 | 54 | 1005.8 |
| 20260508161926 | 52 | 340 | 4.0 | 13.0 | 0.00 | 0.00 | 0.00 | 47 | 1005.7 |
| 20260508160429 | 52 | 291 | 4.0 | 13.0 | 0.00 | 0.00 | 0.00 | 45 | 1005.6 |
| 20260508155428 | 53 | 290 | 4.0 | 7.0 | 0.00 | 0.00 | 0.00 | 43 | 1005.6 |
| 20260508154429 | 55 | 319 | 2.0 | 8.0 | 0.00 | 0.00 | 0.00 | 46 | 1005.6 |
| 20260508154354 | 56 | 345 | 3.0 | 8.0 | 0.00 | 0.00 | 0.00 | 44 | 1005.5 |
| 20260508152428 | 56 | 262 | 3.0 | 8.0 | 0.00 | 0.00 | 0.00 | 46 | 1005.6 |
| 20260508151904 | 56 | 325 | 4.0 | 13.0 | 0.00 | 0.00 | 0.00 | 47 | 1005.7 |
| 20260508150429 | 54 | 300 | 6.0 | 16.0 | 0.00 | 0.00 | 0.00 | 49 | 1005.7 |
| 20260508145429 | 54 | 317 | 6.0 | 16.0 | 0.00 | 0.00 | 0.00 | 52 | 1006.0 |
| 20260508144428 | 54 | 355 | 3.0 | 16.0 | 0.00 | 0.00 | 0.00 | 49 | 1006.0 |
| 20260508143429 | 53 | 299 | 5.0 | 16.0 | 0.00 | 0.00 | 0.00 | 51 | 1006.0 |
| 20260508142908 | 53 | 181 | 5.0 | 14.0 | 0.00 | 0.00 | 0.00 | 54 | 1006.1 |
| 20260508141429 | 53 | 292 | 5.0 | 14.0 | 0.00 | 0.00 | 0.00 | 53 | 1006.1 |
| 20260508140428 | 53 | 315 | 6.0 | 13.0 | 0.00 | 0.00 | 0.00 | 53 | 1006.1 |
| 20260508135428 | 52 | 285 | 4.0 | 11.0 | 0.00 | 0.00 | 0.00 | 54 | 1006.1 |
| 20260508134428 | 52 | 282 | 3.0 | 11.0 | 0.00 | 0.00 | 0.00 | 59 | 1006.3 |
| 20260508133429 | 51 | 294 | 4.0 | 11.0 | 0.00 | 0.00 | 0.00 | 56 | 1006.4 |
| 20260508132429 | 51 | 284 | 5.0 | 16.0 | 0.00 | 0.00 | 0.00 | 55 | 1006.4 |
| 20260508131907 | 51 | 355 | 4.0 | 14.0 | 0.00 | 0.00 | 0.00 | 54 | 1006.4 |
| 20260508130429 | 49 | 297 | 3.0 | 10.0 | 0.00 | 0.00 | 0.00 | 61 | 1006.4 |
| 20260508125428 | 49 | 258 | 5.0 | 11.0 | 0.00 | 0.00 | 0.00 | 59 | 1006.5 |
| 20260508124428 | 48 | 294 | 4.0 | 11.0 | 0.00 | 0.00 | 0.00 | 63 | 1006.6 |
| 20260508123911 | 47 | 311 | 3.0 | 9.0 | 0.00 | 0.00 | 0.00 | 63 | 1006.6 |
| 20260508122907 | 47 | 288 | 3.0 | 9.0 | 0.00 | 0.00 | 0.00 | 61 | 1006.6 |